星链-37557(STARLINK-37557)

导读

STARLINK-37557(NORAD编号69231)是SpaceX星链(Starlink)互联网卫星星座的一员,属于低轨通信卫星,旨在为全球提供低成本、低延迟的宽带互联网服务。星链星座通过大规模部署低轨卫星,逐步完成激光业务组网构型,该卫星采用电推进进行轨道控制,可配合星座维持轨道相位精度。依托星链公开轨迹数据和星间激光链路技术,它参与构建天基通信网络,支撑全球范围的互联网接入服务,同时星链运营方会公开其轨道数据,配合空间交通安全协调。

Basic Information
目录编号:
69231
目录名称:
STARLINK-37557
国际标识:
2026-115W
轨道中心:
EARTH
卫星名称:
星链-37557
卫星全名:
星链-37557(STARLINK-37557)
卫星状态:
在轨 (已飞行101 天)
发射日期:
2026-05-26 UTC
国别 :
美国 (US)
星等 :
--
Orbit Information
数据来源 国际轨道数据
星历时间: 2026-09-02T08:38:59+0800
1天前
查看轨道信息
半长轴: 6843.664km
偏心率: 0.000122
轨道倾角: 97.284°
近地点辐角 97.726°
升交点赤经 261.450°
平近点角 262.412°
近地点: 464.692km
远地点: 466.362km
周期: 93.906分钟
每日圈数: 15.334506
Detailed Information
固有亮度:
5
最大亮度:
2.5
卫星平台:
Starlink V1.0
覆盖范围:
全球
运营商:
太空探索技术公司
运营商所在国:
美国
制造商(研发单位):
太空探索技术公司
制造商所在国:
美国
使用方式:
暂无
Satellite Introduction
Starlink 计划是 SpaceX 推出的全球卫星互联网项目,通过发射低轨道卫星,为全球尤其是偏远地区提供高速、低延迟的互联网服务。自 2019 年起,Starlink 已部署数千颗卫星,旨在缩小全球数字鸿沟,推动互联网普及。该项目还为军事、航空等行业提供通信支持,带来广泛经济效益。
2D Orbit Map
3D Orbit Map
Orbit Altitude Analysis Chart
Orbit Inclination Analysis Chart
Orbit Comprehensive Analysis Chart
View Comprehensive Chart
Conjunction Data List
Event ID Objects TCA Miss Dist (km) Collision Risk Probability Collision Risk Index (CRI) Action
CDM_260905-112206-539806-923121
2026-09-05T
11:22:13+0000
0.338 km
远距离
4.261981E-4 高风险 0.88
CDM_260905-094806-539806-923121
2026-09-05T
09:48:16+0000
1.629 km
极远距离
5.101919E-6 低风险 0.49
CDM_260905-070105-237906-923121
2026-09-05T
07:01:02+0000
2.122 km
极远距离
2.464849E-6 低风险 0.43
CDM_260905-125606-539806-923121
2026-09-05T
12:56:11+0000
2.211 km
极远距离
2.229709E-6 低风险 0.42
CDM_260904-221005-811206-923121
2026-09-04T
22:10:05+0000
2.302 km
极远距离
2.017974E-6 低风险 0.41
CDM_260905-003005-811206-923121
2026-09-05T
00:30:59+0000
2.588 km
极远距离
1.617758E-6 低风险 0.39
CDM_260905-151706-539806-923121
2026-09-05T
15:17:06+0000
2.669 km
极远距离
1.562272E-6 低风险 0.39
CDM_260904-201306-429806-923121
2026-09-04T
20:13:05+0000
2.991 km
极远距离
1.354847E-6 低风险 0.38
CDM_260830-020004-735406-923121
2026-08-30T
02:00:55+0000
2.312 km
极远距离
1.333915E-6 低风险 0.38